| time (UTC) | temp C | wind direction | speed KPH | gust KPH | rain 1hr cm | rain 24hr cm | rain mn cm | humidity % | barometer mb |
| 20260504081810 | 8 | 284 | 3.2 | 1.6 | 0.00 | 0.00 | 0.00 | 100 | 1032.6 |
| 20260504080404 | 8 | 294 | 0.0 | 0.0 | 0.00 | 0.00 | 0.00 | 100 | 1032.5 |
| 20260504050114 | 11 | 69 | 1.6 | 3.2 | 0.00 | 0.00 | 0.00 | 96 | 1031.0 |
| 20260504044710 | 12 | 69 | 3.2 | 3.2 | 0.00 | 0.00 | 0.00 | 95 | 1031.0 |
| 20260504043305 | 12 | 13 | 3.2 | 4.8 | 0.00 | 0.00 | 0.00 | 94 | 1031.0 |
| 20260504041905 | 12 | 21 | 1.6 | 3.2 | 0.00 | 0.00 | 0.00 | 92 | 1031.0 |
| 20260504040459 | 12 | 68 | 4.8 | 6.4 | 0.00 | 0.00 | 0.00 | 92 | 1030.9 |
| 20260504035054 | 12 | 353 | 6.4 | 8.0 | 0.00 | 0.00 | 0.00 | 92 | 1030.8 |
| 20260504033654 | 12 | 314 | 4.8 | 4.8 | 0.00 | 0.00 | 0.00 | 92 | 1030.7 |
| 20260504032247 | 12 | 20 | 3.2 | 4.8 | 0.00 | 0.00 | 0.00 | 91 | 1030.7 |
| 20260504030842 | 12 | 14 | 4.8 | 4.8 | 0.00 | 0.00 | 0.00 | 91 | 1030.5 |
| 20260504025437 | 12 | 23 | 3.2 | 4.8 | 0.00 | 0.00 | 0.00 | 91 | 1030.5 |
| 20260504024036 | 13 | 339 | 6.4 | 9.7 | 0.00 | 0.00 | 0.00 | 89 | 1030.6 |
| 20260504022634 | 13 | 342 | 4.8 | 6.4 | 0.00 | 0.00 | 0.00 | 89 | 1030.7 |
| 20260504021226 | 13 | 11 | 8.0 | 6.4 | 0.00 | 0.00 | 0.00 | 89 | 1030.7 |
| 20260504015823 | 13 | 359 | 4.8 | 4.8 | 0.00 | 0.00 | 0.00 | 88 | 1030.9 |
| 20260504014422 | 13 | 24 | 1.6 | 4.8 | 0.00 | 0.00 | 0.00 | 88 | 1030.9 |
| 20260504011612 | 13 | 7 | 6.4 | 6.4 | 0.00 | 0.00 | 0.00 | 89 | 1031.2 |
| 20260504010210 | 13 | 332 | 8.0 | 4.8 | 0.00 | 0.00 | 0.00 | 92 | 1031.4 |
| 20260504004804 | 13 | 359 | 6.4 | 8.0 | 0.00 | 0.00 | 0.00 | 93 | 1031.6 |
| 20260504003403 | 12 | 345 | 4.8 | 9.7 | 0.00 | 0.00 | 0.00 | 93 | 1031.7 |
| 20260504001957 | 13 | 346 | 4.8 | 4.8 | 0.00 | 0.00 | 0.00 | 92 | 1032.0 |
| 20260504000553 | 13 | 34 | 1.6 | 8.0 | 0.00 | 0.00 | 0.00 | 92 | 1032.2 |
| 20260503233746 | 13 | 10 | 6.4 | 6.4 | 0.00 | 0.00 | 0.00 | 94 | 1032.5 |
| 20260503232345 | 13 | 11 | 0.0 | 1.6 | 0.00 | 0.00 | 0.00 | 92 | 1032.5 |
| 20260503230938 | 13 | 343 | 6.4 | 8.0 | 0.00 | 0.00 | 0.00 | 93 | 1032.5 |
| 20260503225538 | 13 | 332 | 3.2 | 0.0 | 0.00 | 0.00 | 0.00 | 95 | 1032.6 |
| 20260503224137 | 12 | 343 | 4.8 | 3.2 | 0.00 | 0.00 | 0.00 | 97 | 1032.5 |
| 20260503222729 | 12 | 13 | 3.2 | 3.2 | 0.00 | 0.00 | 0.00 | 98 | 1032.4 |
| 20260503221326 | 11 | 291 | 4.8 | 6.4 | 0.00 | 0.00 | 0.00 | 99 | 1032.4 |
| 20260503215922 | 11 | 270 | 1.6 | 1.6 | 0.00 | 0.00 | 0.00 | 99 | 1032.5 |
| 20260503214518 | 11 | 250 | 4.8 | 1.6 | 0.00 | 0.00 | 0.00 | 100 | 1032.4 |
| 20260503213114 | 11 | 305 | 4.8 | 3.2 | 0.00 | 0.00 | 0.00 | 100 | 1032.3 |
| 20260503211709 | 11 | 266 | 4.8 | 3.2 | 0.00 | 0.00 | 0.00 | 100 | 1032.3 |
| 20260503210305 | 10 | 246 | 3.2 | 3.2 | 0.00 | 0.00 | 0.00 | 100 | 1032.3 |
| 20260503204901 | 10 | 259 | 6.4 | 4.8 | 0.00 | 0.00 | 0.00 | 100 | 1032.3 |
| 20260503202055 | 10 | 229 | 4.8 | 4.8 | 0.00 | 0.00 | 0.00 | 100 | 1032.1 |
| 20260503200656 | 10 | 208 | 1.6 | 0.0 | 0.00 | 0.00 | 0.00 | 100 | 1031.8 |
| 20260503193846 | 9 | 294 | 0.0 | 0.0 | 0.00 | 0.00 | 0.00 | 100 | 1031.6 |
| 20260503192444 | 10 | 294 | 0.0 | 0.0 | 0.00 | 0.00 | 0.00 | 100 | 1031.4 |
| 20260503191038 | 9 | 312 | 3.2 | 3.2 | 0.00 | 0.00 | 0.00 | 100 | 1031.3 |
| 20260503185635 | 9 | 260 | 0.0 | 0.0 | 0.00 | 0.00 | 0.00 | 100 | 1031.3 |
| 20260503184231 | 9 | 184 | 0.0 | 0.0 | 0.00 | 0.00 | 0.00 | 100 | 1031.2 |
| 20260503182827 | 9 | 283 | 0.0 | 0.0 | 0.00 | 0.00 | 0.00 | 100 | 1031.0 |
| 20260503181423 | 9 | 277 | 1.6 | 1.6 | 0.00 | 0.00 | 0.00 | 100 | 1031.0 |
| 20260503174617 | 9 | 259 | 0.0 | 0.0 | 0.00 | 0.00 | 0.00 | 100 | 1031.0 |
| 20260503173213 | 8 | 273 | 0.0 | 0.0 | 0.00 | 0.00 | 0.00 | 100 | 1031.1 |
| 20260503171813 | 8 | 309 | 3.2 | 3.2 | 0.00 | 0.00 | 0.00 | 100 | 1031.1 |
| 20260503170407 | 8 | 305 | 1.6 | 1.6 | 0.00 | 0.00 | 0.00 | 100 | 1031.0 |
| 20260503140117 | 6 | 25 | 0.0 | 3.2 | 0.00 | 0.00 | 0.00 | 98 | 1031.7 |
| 20260503130506 | 7 | 250 | 1.6 | 4.8 | 0.00 | 0.00 | 0.00 | 100 | 1031.9 |